Weather History for KMKJ - December, 2011

Change the Weather History Date:

Friday, December 16, 2011

  Actual Average (KGEV) Record (KGEV)
Temperature  
Mean Temperature 47 °F -  
Max Temperature 55 °F 45 °F 67 °F (1971)
Min Temperature 39 °F 26 °F 2 °F (1989)
Degree Days  
Heating Degree Days 18    
Moisture  
Dew Point 44 °F    
Average Humidity 89    
Maximum Humidity 100    
Minimum Humidity 62    
Precipitation  
Precipitation 0.55 in - - ()
Sea Level Pressure  
Sea Level Pressure 30.18 in    
Wind  
Wind Speed 11 mph (West)    
Max Wind Speed 17 mph    
Max Gust Speed 24 mph    
Visibility 8 miles    
Events Rain    
Averages and records for this station are not official NWS values.
T = Trace of Precipitation, MM = Missing Value Source: NWS Daily Summary

Daily Weather History Graph

Daily Weather History Graph

Search for Another Location

Airport or City:

Trip Planner

Search our weather history database for the weather conditions in past years. The results will help you decide how hot, cold, wet, or windy it might be!

Date:

Astronomy

Dec. 16, 2011 Rise Set
Actual Time 7:31 AM EST 5:10 PM EST
Civil Twilight 7:02 AM EST 5:39 PM EST
Nautical Twilight 6:30 AM EST 6:11 PM EST
Astronomical Twilight 5:58 AM EST 6:43 PM EST
Moon 11:33 PM EST (12/16) 11:24 AM EST (12/16)
Length of Visible Light 10h 36m
Length of Day
9h 38m
Waning Gibbous, 65% of the Moon is Illuminated
Dec 16
Waning Gibbous
Dec 17
Last Quarter
Dec 24
New
Jan 1
First Quarter
Jan 9
Full

Hourly Weather History & Observations

Time (EST) Temp. Windchill Dew Point Humidity Pressure Visibility Wind Dir Wind Speed Gust Speed Precip Events Conditions
12:15 AM 55.4 °F - 53.6 °F 94% 30.15 in 10.0 mi West 15.0 mph 20.7 mph N/A   Overcast
12:35 AM 55.4 °F - 53.6 °F 94% 30.14 in 10.0 mi West 13.8 mph - N/A   Overcast
12:55 AM 55.4 °F - 51.8 °F 88% 30.14 in 10.0 mi West 9.2 mph - N/A   Overcast
1:15 AM 55.4 °F - 51.8 °F 88% 30.14 in 10.0 mi West 10.4 mph - N/A   Overcast
1:35 AM 53.6 °F - 51.8 °F 94% 30.14 in 10.0 mi WSW 13.8 mph - N/A   Overcast
1:55 AM 55.4 °F - 53.6 °F 94% 30.14 in 10.0 mi West 17.3 mph 20.7 mph N/A   Overcast
2:15 AM 55.4 °F - 51.8 °F 88% 30.15 in 10.0 mi West 17.3 mph 21.9 mph N/A   Mostly Cloudy
2:35 AM 55.4 °F - 51.8 °F 88% 30.15 in 10.0 mi West 17.3 mph 21.9 mph N/A   Overcast
2:55 AM 55.4 °F - 51.8 °F 88% 30.14 in 10.0 mi West 15.0 mph 20.7 mph N/A   Overcast
3:15 AM 53.6 °F - 51.8 °F 94% 30.14 in 10.0 mi West 13.8 mph - N/A   Overcast
3:35 AM 53.6 °F - 51.8 °F 94% 30.14 in 10.0 mi West 17.3 mph 24.2 mph N/A   Overcast
4:15 AM 53.6 °F - 51.8 °F 94% 30.14 in 10.0 mi West 15.0 mph - N/A   Overcast
4:35 AM 53.6 °F - 51.8 °F 94% 30.15 in 10.0 mi West 12.7 mph - N/A   Overcast
5:15 AM 53.6 °F - 51.8 °F 94% 30.15 in 10.0 mi West 13.8 mph 19.6 mph N/A   Light Drizzle
5:35 AM 53.6 °F - 50.0 °F 88% 30.14 in 10.0 mi WNW 15.0 mph - N/A   Overcast
5:55 AM 53.6 °F - 50.0 °F 88% 30.15 in 10.0 mi WNW 13.8 mph 18.4 mph N/A   Overcast
6:35 AM 51.8 °F - 46.4 °F 82% 30.16 in 10.0 mi WNW 13.8 mph 23.0 mph N/A   Overcast
7:15 AM 50.0 °F - 41.0 °F 71% 30.18 in 10.0 mi WSW 8.1 mph - N/A   Mostly Cloudy
7:35 AM 50.0 °F - 37.4 °F 62% 30.19 in 10.0 mi SSW 4.6 mph - N/A   Overcast
7:55 AM 50.0 °F - 37.4 °F 62% 30.19 in 10.0 mi WSW 6.9 mph - N/A   Overcast
8:55 AM 48.2 °F - 35.6 °F 62% 30.22 in 10.0 mi West 8.1 mph - N/A   Overcast
9:15 AM 48.2 °F - 35.6 °F 62% 30.23 in 10.0 mi WNW 8.1 mph - N/A   Overcast
9:55 AM 48.2 °F - 37.4 °F 66% 30.22 in 10.0 mi WNW 8.1 mph - N/A Rain Light Rain
10:15 AM 46.4 °F 41.9 °F 39.2 °F 76% 30.23 in 10.0 mi WNW 9.2 mph - N/A   Drizzle
10:35 AM 46.4 °F 43.5 °F 41.0 °F 81% 30.22 in 10.0 mi WNW 5.8 mph - N/A Rain Light Rain
10:55 AM 46.4 °F 42.9 °F 41.0 °F 81% 30.21 in 10.0 mi West 6.9 mph - N/A   Overcast
11:15 AM 46.4 °F 41.5 °F 42.8 °F 87% 30.24 in 10.0 mi West 10.4 mph 16.1 mph N/A Rain Light Rain
11:35 AM 46.4 °F 41.1 °F 42.8 °F 87% 30.24 in 7.0 mi WSW 11.5 mph - 0.04 in Rain Rain
11:55 AM 46.4 °F 41.9 °F 44.6 °F 93% 30.23 in 5.0 mi WSW 9.2 mph - 0.10 in Rain Rain
12:15 PM 46.4 °F 41.5 °F 44.6 °F 93% 30.22 in 5.0 mi WSW 10.4 mph - 0.05 in Rain Rain
12:35 PM 44.6 °F 40.7 °F 44.6 °F 100% 30.20 in 5.0 mi WSW 6.9 mph - 0.07 in Rain Light Rain
12:55 PM 46.4 °F 42.4 °F 44.6 °F 93% 30.18 in 7.0 mi West 8.1 mph - 0.09 in Rain Rain
1:15 PM 46.4 °F 41.5 °F 44.6 °F 93% 30.17 in 7.0 mi West 10.4 mph - 0.01 in   Drizzle
1:35 PM 46.4 °F 42.4 °F 44.6 °F 93% 30.16 in 7.0 mi WSW 8.1 mph - 0.03 in Rain Rain
1:55 PM 46.4 °F 43.5 °F 44.6 °F 93% 30.15 in 5.0 mi WSW 5.8 mph - 0.07 in Rain Light Rain
2:15 PM 46.4 °F 44.3 °F 44.6 °F 93% 30.14 in 7.0 mi SW 4.6 mph - 0.01 in Rain Rain
2:35 PM 46.4 °F 44.3 °F 44.6 °F 93% 30.14 in 7.0 mi WSW 4.6 mph - 0.01 in Rain Rain
3:15 PM 46.4 °F 42.4 °F 44.6 °F 93% 30.16 in 5.0 mi West 8.1 mph - 0.03 in Rain Rain
3:35 PM 46.4 °F 42.9 °F 44.6 °F 93% 30.16 in 5.0 mi WSW 6.9 mph - 0.06 in Rain Rain
3:55 PM 46.4 °F 42.9 °F 44.6 °F 93% 30.16 in 4.0 mi WSW 6.9 mph - 0.09 in Rain Light Rain
4:35 PM 46.4 °F 45.2 °F 44.6 °F 93% 30.15 in 5.0 mi WNW 3.5 mph - 0.04 in Rain Light Rain
4:55 PM 46.4 °F 44.3 °F 44.6 °F 93% 30.16 in 10.0 mi WNW 4.6 mph - 0.04 in   Overcast
5:15 PM 46.4 °F 44.3 °F 44.6 °F 93% 30.16 in 4.0 mi West 4.6 mph - N/A Rain Heavy Rain
5:35 PM 46.4 °F 44.3 °F 44.6 °F 93% 30.16 in 4.0 mi West 4.6 mph - 0.01 in   Drizzle
6:15 PM 44.6 °F 42.2 °F 44.6 °F 100% 30.17 in 4.0 mi WSW 4.6 mph - N/A   Drizzle
6:35 PM 44.6 °F 41.4 °F 44.6 °F 100% 30.17 in 3.0 mi West 5.8 mph - 0.01 in   Heavy Drizzle
6:55 PM 44.6 °F 41.4 °F 42.8 °F 93% 30.18 in 4.0 mi NNW 5.8 mph - 0.03 in   Heavy Drizzle
7:15 PM 44.6 °F 42.2 °F 42.8 °F 93% 30.18 in 5.0 mi NW 4.6 mph - N/A Rain Rain
7:35 PM 44.6 °F 43.1 °F 42.8 °F 93% 30.19 in 7.0 mi West 3.5 mph - 0.01 in Rain Light Rain
7:55 PM 44.6 °F 41.4 °F 42.8 °F 93% 30.20 in 7.0 mi WSW 5.8 mph - 0.01 in   Drizzle
8:15 PM 42.8 °F 39.3 °F 41.0 °F 93% 30.20 in 7.0 mi SW 5.8 mph - 0.01 in Rain Rain
8:35 PM 42.8 °F 38.6 °F 41.0 °F 93% 30.21 in 10.0 mi West 6.9 mph - 0.02 in   Drizzle
8:55 PM 42.8 °F 38.6 °F 41.0 °F 93% 30.21 in 10.0 mi West 6.9 mph - 0.03 in Rain Rain
9:15 PM 42.8 °F 39.3 °F 41.0 °F 93% 30.21 in 10.0 mi West 5.8 mph - 0.03 in Rain Rain
9:35 PM 42.8 °F 38.0 °F 41.0 °F 93% 30.21 in 10.0 mi West 8.1 mph - 0.04 in Rain Light Rain
9:55 PM 41.0 °F 34.7 °F 39.2 °F 93% 30.20 in 5.0 mi West 10.4 mph - 0.05 in Rain Light Rain
10:15 PM 41.0 °F 35.8 °F 37.4 °F 87% 30.21 in 10.0 mi West 8.1 mph - 0.01 in Rain Light Rain
10:35 PM 41.0 °F 38.0 °F 37.4 °F 87% 30.20 in 10.0 mi WSW 4.6 mph - 0.02 in Rain Light Rain
10:55 PM 41.0 °F 36.4 °F 37.4 °F 87% 30.18 in 10.0 mi West 6.9 mph - 0.02 in   Overcast
11:15 PM 39.2 °F 35.9 °F 37.4 °F 93% 30.17 in 10.0 mi WNW 4.6 mph - N/A   Overcast
11:35 PM 39.2 °F 35.0 °F 37.4 °F 93% 30.17 in 10.0 mi WNW 5.8 mph - N/A   Overcast
11:55 PM 39.2 °F 34.2 °F 37.4 °F 93% 30.18 in 5.0 mi WNW 6.9 mph - N/A   Overcast